{"data":{"norad_id":53688,"intl_designator":"2022-105AS","name":"STARLINK-4571","alt_names":[],"object_type":"PAYLOAD","status":"ACTIVE","operator":null,"country":"US","launch_date":"2022-08-31","launch_site_code":"AFWTR","launch_vehicle":null,"mission":null,"orbit_class":"UNKNOWN","rcs_meters":null,"size_class":null,"mass_kg":null,"dimensions":null,"purposes":["comms"],"wikipedia_slug":null,"has_3d_model":false,"image_url":null,"decayed_at":null,"tle_current":{"epoch":"2026-09-20T13:22:23.636928Z","epoch_age_seconds":76765,"freshness":"FRESH","line1":"1 53688U 22105AS  26263.55721802  .00000276  00000+0  23057-4 0  9994","line2":"2 53688  97.2839 137.3142 0002110  71.1812 288.9645 15.05652266222551","mean_motion":15.05652266,"eccentricity":0.000211,"inclination_deg":97.2839,"raan_deg":137.3142,"arg_perigee_deg":71.1812,"mean_anomaly_deg":288.9645,"bstar":2.3057e-5,"rev_number":22255,"period_min":95.639612978207,"perigee_km":548.04247102358,"apogee_km":550.96593561138,"semimajor_km":6927.6412033175,"source":"CELESTRAK","updated_at":"2026-09-21T09:00:32.980139Z"}}}